Detroit Lakes, MN

3:10 AM CDT on May 26, 2017 (GMT -0500)
Detroit Lakes

Weather History for KDTL - June, 2012

Change the Weather History Date:

Monday, June 18, 2012

  Actual Average Record
Temperature  
Mean Temperature 70 °F -  
Max Temperature 80 °F 74 °F 96 °F (1933)
Min Temperature 60 °F 50 °F 38 °F (1958)
Cooling Degree Days 5    
Growing Degree Days 20 (Base 50)    
Moisture  
Dew Point 56 °F    
Average Humidity 65    
Maximum Humidity 100    
Minimum Humidity 34    
Precipitation  
Precipitation 0.00 in - - ()
Sea Level Pressure  
Sea Level Pressure 29.50 in    
Wind  
Wind Speed 8 mph (WSW)    
Max Wind Speed 16 mph    
Max Gust Speed 23 mph    
Visibility 10 miles    
Events      
Averages and records for this station are not official NWS values.
T = Trace of Precipitation, MM = Missing Value Source: NWS Daily Summary

Daily Weather History Graph

Daily Weather History Graph

Search for Another Location

Airport or City:

Trip Planner

Search our weather history database for the weather conditions in past years. The results will help you decide how hot, cold, wet, or windy it might be!

Date:

Astronomy

Jun. 18, 2012 Rise Set
Actual Time 5:28 AM CDT 9:20 PM CDT
Civil Twilight 4:49 AM CDT 10:00 PM CDT
Nautical Twilight 3:54 AM CDT 10:54 PM CDT
Astronomical Twilight 2:34 AM CDT 12:15 AM CDT
Moon 4:46 AM CDT (6/18) 8:37 PM CDT (6/18)
Length of Visible Light 17h 11m
Length of Day
15h 52m
Waning Crescent, 1% of the Moon is Illuminated
Jun 18
Waning Crescent
Jun 19
New
Jun 26
First Quarter
Jul 3
Full
Jul 10
Last Quarter

Hourly Weather History & Observations

Time (CDT) Temp. Dew Point Humidity Pressure Visibility Wind Dir Wind Speed Gust Speed Precip Events Conditions
12:13 AM 62.6 °F 60.8 °F 94% 29.44 in 10.0 mi SSE 8.1 mph - N/A   Clear
12:33 AM 62.6 °F 60.8 °F 94% 29.44 in 10.0 mi SE 6.9 mph - N/A   Clear
12:52 AM 62.6 °F 60.8 °F 94% 29.43 in 10.0 mi SE 8.1 mph - N/A   Scattered Clouds
1:13 AM 60.8 °F 59.0 °F 94% 29.42 in 10.0 mi SE 8.1 mph - N/A   Scattered Clouds
1:33 AM 60.8 °F 59.0 °F 94% 29.41 in 10.0 mi SE 6.9 mph - N/A   Overcast
1:52 AM 60.8 °F 59.0 °F 94% 29.41 in 10.0 mi SSE 8.1 mph - N/A   Mostly Cloudy
2:13 AM 60.8 °F 60.8 °F 100% 29.42 in 10.0 mi South 5.8 mph - N/A   Mostly Cloudy
2:33 AM 60.8 °F 60.8 °F 100% 29.41 in 10.0 mi South 5.8 mph - N/A   Scattered Clouds
2:52 AM 60.8 °F 60.8 °F 100% 29.41 in 10.0 mi SSE 5.8 mph - N/A   Scattered Clouds
3:13 AM 60.8 °F 60.8 °F 100% 29.41 in 10.0 mi South 6.9 mph - N/A   Scattered Clouds
3:33 AM 60.8 °F 60.8 °F 100% 29.41 in 10.0 mi SSE 4.6 mph - N/A   Clear
3:52 AM 60.8 °F 60.8 °F 100% 29.41 in 7.0 mi Calm Calm - N/A   Clear
4:13 AM 60.8 °F 60.8 °F 100% 29.41 in 10.0 mi South 4.6 mph - N/A   Clear
4:33 AM 62.6 °F 60.8 °F 94% 29.41 in 10.0 mi South 5.8 mph - N/A   Clear
4:52 AM 62.6 °F 60.8 °F 94% 29.41 in 10.0 mi South 3.5 mph - N/A   Clear
5:13 AM 60.8 °F 60.8 °F 100% 29.41 in 7.0 mi SSE 4.6 mph - N/A   Clear
5:32 AM 60.8 °F 60.8 °F 100% 29.40 in 7.0 mi SSE 4.6 mph - N/A   Clear
5:53 AM 60.8 °F 60.8 °F 100% 29.39 in 7.0 mi South 4.6 mph - N/A   Clear
6:12 AM 62.6 °F 60.8 °F 94% 29.39 in 10.0 mi South 4.6 mph - N/A   Clear
6:33 AM 64.4 °F 62.6 °F 94% 29.39 in 10.0 mi SSW 6.9 mph - N/A   Clear
6:53 AM 66.2 °F 60.8 °F 83% 29.39 in 10.0 mi SW 6.9 mph - N/A   Clear
7:12 AM 69.8 °F 59.0 °F 68% 29.39 in 10.0 mi West 10.4 mph - N/A   Clear
7:33 AM 71.6 °F 57.2 °F 60% 29.39 in 10.0 mi West 13.8 mph 18.4 mph N/A   Clear
7:52 AM 71.6 °F 57.2 °F 60% 29.39 in 10.0 mi West 9.2 mph 17.3 mph N/A   Clear
8:13 AM 71.6 °F 57.2 °F 60% 29.39 in 10.0 mi West 8.1 mph - N/A   Clear
8:33 AM 71.6 °F 59.0 °F 64% 29.40 in 10.0 mi WNW 9.2 mph - N/A   Clear
8:52 AM 71.6 °F 60.8 °F 69% 29.40 in 10.0 mi WNW 8.1 mph - N/A   Clear
9:13 AM 71.6 °F 60.8 °F 69% 29.42 in 10.0 mi West 9.2 mph - N/A   Clear
9:33 AM 71.6 °F 60.8 °F 69% 29.44 in 10.0 mi WNW 8.1 mph - N/A   Clear
10:13 AM 71.6 °F 60.8 °F 69% 29.47 in 10.0 mi WNW 10.4 mph - N/A   Clear
10:33 AM 71.6 °F 60.8 °F 69% 29.47 in 10.0 mi WNW 8.1 mph - N/A   Clear
10:52 AM 71.6 °F 59.0 °F 64% 29.49 in 10.0 mi WNW 12.7 mph 18.4 mph N/A   Clear
11:13 AM 71.6 °F 57.2 °F 60% 29.50 in 10.0 mi NW 12.7 mph - N/A   Clear
11:33 AM 71.6 °F 55.4 °F 57% 29.50 in 10.0 mi NW 12.7 mph - N/A   Clear
11:52 AM 71.6 °F 55.4 °F 57% 29.51 in 10.0 mi NW 10.4 mph - N/A   Clear
12:13 PM 73.4 °F 55.4 °F 53% 29.52 in 10.0 mi WNW 12.7 mph - N/A   Clear
12:33 PM 71.6 °F 53.6 °F 53% 29.53 in 10.0 mi West 10.4 mph - N/A   Clear
12:52 PM 71.6 °F 51.8 °F 50% 29.53 in 10.0 mi West 12.7 mph 18.4 mph N/A   Clear
1:13 PM 73.4 °F 53.6 °F 50% 29.54 in 10.0 mi West 12.7 mph 16.1 mph N/A   Clear
1:32 PM 73.4 °F 51.8 °F 47% 29.54 in 10.0 mi West 11.5 mph 17.3 mph N/A   Clear
1:52 PM 75.2 °F 53.6 °F 47% 29.54 in 10.0 mi WSW 13.8 mph 19.6 mph N/A   Clear
2:13 PM 75.2 °F 53.6 °F 47% 29.54 in 10.0 mi West 11.5 mph 18.4 mph N/A   Clear
2:33 PM 77.0 °F 51.8 °F 41% 29.55 in 10.0 mi West 16.1 mph 21.9 mph N/A   Clear
2:52 PM 77.0 °F 53.6 °F 44% 29.54 in 10.0 mi WSW 12.7 mph 19.6 mph N/A   Clear
3:13 PM 77.0 °F 53.6 °F 44% 29.54 in 10.0 mi WSW 11.5 mph - N/A   Clear
3:32 PM 77.0 °F 53.6 °F 44% 29.54 in 10.0 mi West 11.5 mph - N/A   Clear
3:52 PM 78.8 °F 53.6 °F 42% 29.54 in 10.0 mi West 10.4 mph 18.4 mph N/A   Clear
4:13 PM 78.8 °F 53.6 °F 42% 29.54 in 10.0 mi West 15.0 mph 20.7 mph N/A   Clear
4:33 PM 78.8 °F 51.8 °F 39% 29.54 in 10.0 mi WNW 13.8 mph 17.3 mph N/A   Clear
4:52 PM 78.8 °F 51.8 °F 39% 29.55 in 10.0 mi West 11.5 mph 18.4 mph N/A   Clear
5:13 PM 78.8 °F 50.0 °F 36% 29.54 in 10.0 mi West 15.0 mph 19.6 mph N/A   Clear
5:32 PM 80.6 °F 51.8 °F 37% 29.55 in 10.0 mi WSW 13.8 mph 17.3 mph N/A   Clear
5:53 PM 80.6 °F 50.0 °F 34% 29.56 in 10.0 mi West 13.8 mph - N/A   Clear
6:13 PM 78.8 °F 50.0 °F 36% 29.57 in 10.0 mi West 16.1 mph 23.0 mph N/A   Clear
6:32 PM 78.8 °F 50.0 °F 36% 29.57 in 10.0 mi WSW 10.4 mph 17.3 mph N/A   Clear
6:53 PM 78.8 °F 50.0 °F 36% 29.58 in 10.0 mi West 13.8 mph 18.4 mph N/A   Clear
7:12 PM 78.8 °F 48.2 °F 34% 29.59 in 10.0 mi West 10.4 mph - N/A   Clear
7:33 PM 78.8 °F 50.0 °F 36% 29.60 in 10.0 mi West 10.4 mph - N/A   Clear
7:53 PM 78.8 °F 51.8 °F 39% 29.61 in 10.0 mi WNW 9.2 mph - N/A   Clear
8:12 PM 77.0 °F 51.8 °F 41% 29.63 in 10.0 mi WNW 9.2 mph - N/A   Clear
8:33 PM 75.2 °F 51.8 °F 44% 29.64 in 10.0 mi WNW 6.9 mph - N/A   Clear
8:53 PM 73.4 °F 53.6 °F 50% 29.64 in 10.0 mi NW 5.8 mph - N/A   Clear
9:12 PM 71.6 °F 53.6 °F 53% 29.65 in 10.0 mi NW 6.9 mph - N/A   Clear
9:33 PM 69.8 °F 55.4 °F 60% 29.66 in 10.0 mi NNW 6.9 mph - N/A   Clear
9:53 PM 69.8 °F 53.6 °F 56% 29.66 in 10.0 mi Calm Calm - N/A   Clear
10:12 PM 68.0 °F 53.6 °F 60% 29.67 in 10.0 mi NNE 4.6 mph - N/A   Clear
10:33 PM 68.0 °F 53.6 °F 60% 29.67 in 10.0 mi North 4.6 mph - N/A   Clear
10:53 PM 66.2 °F 55.4 °F 68% 29.69 in 10.0 mi North 8.1 mph - N/A   Clear
11:33 PM 64.4 °F 53.6 °F 68% 29.71 in 10.0 mi Calm Calm - N/A   Clear
11:53 PM 64.4 °F 53.6 °F 68% 29.70 in 10.0 mi Calm Calm - N/A   Clear